When you browse on this site, cookies collect data to enhance your experience and personalize the content and advertising you see.
Visit our Privacy Policy to learn more. By continuing to use the site, you agree to this use of cookies and data.
  • In Deutschland
  • Länderverzeichnis
  • Für 7 Tage
  • Wassertemperatur
  • Wetterkarte
  • Widgets
  • user-avatar
    Anmelden

    Stündliche Wetter Cairns

    Heute, 5 Juni, Freitag

    Zeit Temperatur Niederschläge Wind Luftdruck Luftfeuchtigkeit
    00:00 +19°C° 0.1 mm 5 m/S 763 mmHg 95%
    01:00 +19°C° 0.1 mm 5 m/S 762 mmHg 96%
    02:00 +19°C° 0.1 mm 5 m/S 762 mmHg 97%
    03:00 +20°C° 0.1 mm 5 m/S 762 mmHg 97%
    04:00 +21°C° 0 mm 5 m/S 761 mmHg 96%
    05:00 +21°C° 0.1 mm 5 m/S 761 mmHg 96%
    06:00 +21°C° 0.1 mm 5 m/S 762 mmHg 97%
    07:00 +21°C° 0.1 mm 6 m/S 762 mmHg 97%
    08:00 +22°C° 0.1 mm 6 m/S 762 mmHg 91%
    09:00 +23°C° 0.1 mm 6 m/S 763 mmHg 86%
    10:00 +24°C° 0 mm 6 m/S 763 mmHg 82%
    11:00 +26°C° 0.1 mm 6 m/S 762 mmHg 79%
    12:00 +26°C° 0.1 mm 6 m/S 762 mmHg 76%
    13:00 +27°C° 0.1 mm 6 m/S 762 mmHg 73%
    14:00 +27°C° 0.1 mm 6 m/S 761 mmHg 75%
    15:00 +26°C° 0.1 mm 6 m/S 761 mmHg 76%
    16:00 +26°C° 0 mm 6 m/S 761 mmHg 78%
    17:00 +24°C° 0.1 mm 6 m/S 762 mmHg 83%
    18:00 +22°C° 0.1 mm 5 m/S 762 mmHg 89%
    19:00 +21°C° 0.1 mm 5 m/S 762 mmHg 94%
    20:00 +21°C° 0.1 mm 5 m/S 762 mmHg 94%
    21:00 +21°C° 0.1 mm 5 m/S 763 mmHg 95%
    22:00 +21°C° 0.1 mm 5 m/S 763 mmHg 95%
    23:00 +21°C° 0.1 mm 5 m/S 762 mmHg 96%

    Morgen, 6 Juni, Samstag

    Zeit Temperatur Niederschläge Wind Luftdruck Luftfeuchtigkeit
    00:00 +20°C° 0.1 mm 5 m/S 762 mmHg 96%
    01:00 +20°C° 0.1 mm 5 m/S 762 mmHg 97%
    02:00 +20°C° 0.1 mm 5 m/S 761 mmHg 97%
    03:00 +20°C° 0.1 mm 5 m/S 761 mmHg 97%
    04:00 +20°C° 0.1 mm 5 m/S 761 mmHg 98%
    05:00 +20°C° 0.1 mm 5 m/S 761 mmHg 97%
    06:00 +21°C° 0.1 mm 5 m/S 761 mmHg 97%
    07:00 +21°C° 0.1 mm 5 m/S 761 mmHg 97%
    08:00 +22°C° 0.2 mm 5 m/S 761 mmHg 92%
    09:00 +23°C° 0.2 mm 6 m/S 761 mmHg 86%
    10:00 +24°C° 0.2 mm 6 m/S 762 mmHg 80%
    11:00 +26°C° 0.2 mm 6 m/S 761 mmHg 77%
    12:00 +27°C° 0.2 mm 6 m/S 761 mmHg 73%
    13:00 +27°C° 0.2 mm 6 m/S 760 mmHg 70%
    14:00 +27°C° 0.2 mm 6 m/S 760 mmHg 74%
    15:00 +26°C° 0.2 mm 6 m/S 760 mmHg 77%
    16:00 +24°C° 0.2 mm 6 m/S 759 mmHg 81%
    17:00 +23°C° 0.2 mm 5 m/S 760 mmHg 87%
    18:00 +22°C° 0.2 mm 5 m/S 760 mmHg 92%
    19:00 +21°C° 0.2 mm 5 m/S 761 mmHg 97%
    20:00 +21°C° 0.2 mm 4 m/S 761 mmHg 97%
    21:00 +21°C° 0.2 mm 4 m/S 761 mmHg 97%
    22:00 +21°C° 0.2 mm 4 m/S 762 mmHg 97%
    23:00 +20°C° 0.1 mm 4 m/S 761 mmHg 97%

    übermorgen, 7 Juni, Sonntag

    Zeit Temperatur Niederschläge Wind Luftdruck Luftfeuchtigkeit
    00:00 +20°C° 0.1 mm 4 m/S 761 mmHg 98%
    01:00 +20°C° 0.1 mm 4 m/S 761 mmHg 98%
    02:00 +19°C° 0.1 mm 4 m/S 760 mmHg 98%
    03:00 +19°C° 0.1 mm 4 m/S 760 mmHg 98%
    04:00 +19°C° 0.1 mm 3 m/S 760 mmHg 98%
    05:00 +19°C° 0 mm 3 m/S 760 mmHg 98%
    06:00 +19°C° 0 mm 3 m/S 760 mmHg 98%
    07:00 +19°C° 0 mm 3 m/S 760 mmHg 98%
    08:00 +21°C° 0 mm 3 m/S 760 mmHg 88%
    09:00 +23°C° 0 mm 4 m/S 761 mmHg 79%
    10:00 +26°C° 0 mm 4 m/S 761 mmHg 70%
    11:00 +27°C° 0.1 mm 4 m/S 760 mmHg 68%
    12:00 +27°C° 0.1 mm 4 m/S 760 mmHg 66%
    13:00 +28°C° 0.1 mm 4 m/S 760 mmHg 64%
    14:00 +27°C° 0.2 mm 4 m/S 759 mmHg 70%
    15:00 +26°C° 0.2 mm 4 m/S 759 mmHg 76%
    16:00 +25°C° 0.2 mm 4 m/S 759 mmHg 81%
    17:00 +23°C° 0.1 mm 4 m/S 759 mmHg 86%
    18:00 +22°C° 0.1 mm 4 m/S 760 mmHg 90%
    19:00 +21°C° 0.1 mm 4 m/S 760 mmHg 95%
    20:00 +21°C° 0 mm 4 m/S 761 mmHg 96%
    21:00 +20°C° 0 mm 4 m/S 761 mmHg 96%
    22:00 +20°C° 0 mm 4 m/S 761 mmHg 97%
    23:00 +20°C° 0.1 mm 4 m/S 761 mmHg 97%

    8 Juni, Montag

    Zeit Temperatur Niederschläge Wind Luftdruck Luftfeuchtigkeit
    00:00 +20°C° 0.1 mm 4 m/S 761 mmHg 97%
    01:00 +19°C° 0.1 mm 4 m/S 761 mmHg 98%
    02:00 +20°C° 0.1 mm 4 m/S 761 mmHg 98%
    03:00 +20°C° 0.1 mm 4 m/S 760 mmHg 98%
    04:00 +20°C° 0.1 mm 4 m/S 760 mmHg 98%
    05:00 +20°C° 0.1 mm 5 m/S 760 mmHg 98%
    06:00 +20°C° 0.1 mm 5 m/S 761 mmHg 98%
    07:00 +20°C° 0.1 mm 5 m/S 761 mmHg 98%
    08:00 +21°C° 0.1 mm 5 m/S 762 mmHg 91%
    09:00 +23°C° 0.1 mm 6 m/S 762 mmHg 84%
    10:00 +26°C° 0.1 mm 6 m/S 762 mmHg 77%
    11:00 +26°C° 0.2 mm 6 m/S 761 mmHg 74%
    12:00 +27°C° 0.2 mm 6 m/S 761 mmHg 71%
    13:00 +27°C° 0.2 mm 7 m/S 761 mmHg 69%
    14:00 +26°C° 0.2 mm 7 m/S 761 mmHg 72%
    15:00 +26°C° 0.2 mm 7 m/S 760 mmHg 75%
    16:00 +24°C° 0.2 mm 7 m/S 760 mmHg 77%
    17:00 +23°C° 0.1 mm 6 m/S 761 mmHg 83%
    18:00 +21°C° 0.1 mm 6 m/S 761 mmHg 89%
    19:00 +20°C° 0.1 mm 5 m/S 762 mmHg 95%
    20:00 +20°C° 0 mm 5 m/S 762 mmHg 96%
    21:00 +20°C° 0 mm 5 m/S 762 mmHg 96%
    22:00 +19°C° 0 mm 5 m/S 762 mmHg 96%
    23:00 +20°C° 0.3 mm 6 m/S 762 mmHg 96%

    9 Juni, Dienstag

    Zeit Temperatur Niederschläge Wind Luftdruck Luftfeuchtigkeit
    00:00 +21°C° 0.3 mm 6 m/S 762 mmHg 96%
    01:00 +21°C° 0.3 mm 6 m/S 762 mmHg 96%
    02:00 +21°C° 0.2 mm 6 m/S 761 mmHg 96%
    03:00 +21°C° 0.2 mm 6 m/S 761 mmHg 96%
    04:00 +21°C° 0.2 mm 6 m/S 761 mmHg 96%
    05:00 +21°C° 0.2 mm 6 m/S 761 mmHg 96%
    06:00 +21°C° 0.2 mm 6 m/S 761 mmHg 97%
    07:00 +21°C° 0.2 mm 6 m/S 762 mmHg 97%
    08:00 +22°C° 0.2 mm 7 m/S 762 mmHg 93%
    09:00 +23°C° 0.2 mm 7 m/S 762 mmHg 89%
    10:00 +24°C° 0.2 mm 7 m/S 763 mmHg 84%
    11:00 +24°C° 0.2 mm 7 m/S 762 mmHg 82%
    12:00 +26°C° 0.2 mm 7 m/S 762 mmHg 80%
    13:00 +26°C° 0.2 mm 7 m/S 761 mmHg 78%
    14:00 +26°C° 0.3 mm 7 m/S 761 mmHg 81%
    15:00 +24°C° 0.3 mm 6 m/S 761 mmHg 84%
    16:00 +24°C° 0.3 mm 6 m/S 761 mmHg 87%
    17:00 +23°C° 0.3 mm 6 m/S 762 mmHg 90%
    18:00 +22°C° 0.3 mm 6 m/S 762 mmHg 94%
    19:00 +21°C° 0.3 mm 5 m/S 762 mmHg 97%
    20:00 +21°C° 0.2 mm 5 m/S 763 mmHg 97%
    21:00 +21°C° 0.2 mm 5 m/S 763 mmHg 98%
    22:00 +21°C° 0.2 mm 5 m/S 763 mmHg 98%
    23:00 +21°C° 0.2 mm 5 m/S 763 mmHg 98%

    10 Juni, Mittwoch

    Zeit Temperatur Niederschläge Wind Luftdruck Luftfeuchtigkeit
    00:00 +21°C° 0.2 mm 5 m/S 762 mmHg 98%
    01:00 +21°C° 0.2 mm 5 m/S 762 mmHg 98%
    02:00 +21°C° 0.2 mm 5 m/S 762 mmHg 98%
    03:00 +21°C° 0.2 mm 4 m/S 761 mmHg 98%
    04:00 +21°C° 0.2 mm 4 m/S 761 mmHg 98%
    05:00 +21°C° 0.2 mm 4 m/S 762 mmHg 98%
    06:00 +22°C° 0.2 mm 4 m/S 762 mmHg 98%
    07:00 +22°C° 0.2 mm 4 m/S 762 mmHg 98%
    08:00 +22°C° 0.3 mm 5 m/S 762 mmHg 96%
    09:00 +23°C° 0.3 mm 5 m/S 763 mmHg 94%
    10:00 +25°C° 0.3 mm 5 m/S 763 mmHg 92%
    11:00 +25°C° 0.3 mm 5 m/S 762 mmHg 89%
    12:00 +24°C° 0.3 mm 6 m/S 762 mmHg 87%
    13:00 +24°C° 0.3 mm 6 m/S 761 mmHg 84%
    14:00 +24°C° 0.2 mm 6 m/S 761 mmHg 83%
    15:00 +25°C° 0.2 mm 5 m/S 761 mmHg 82%
    16:00 +25°C° 0.2 mm 5 m/S 761 mmHg 81%
    17:00 +23°C° 0.1 mm 5 m/S 761 mmHg 86%
    18:00 +22°C° 0.1 mm 5 m/S 762 mmHg 92%
    19:00 +21°C° 0.1 mm 5 m/S 762 mmHg 97%
    20:00 +21°C° 0.1 mm 5 m/S 762 mmHg 97%
    21:00 +21°C° 0.1 mm 5 m/S 763 mmHg 97%
    22:00 +21°C° 0.1 mm 5 m/S 763 mmHg 98%
    23:00 +20°C° 0 mm 5 m/S 763 mmHg 98%
    Mehr zeigen